Time,TemperatureF,DewpointF,PressureIn,WindDirection,WindDirectionDegrees,WindSpeedMPH,WindSpeedGustMPH,Humidity,HourlyPrecipIn,Conditions,Clouds,dailyrainin,SoftwareType,DateUTC
2013-04-29 00:01:00,52.0,39.0,30.15,SE,129,6.0,9.0,61,0.00,,OVC070,0.00,VWS V14.01,2013-04-29 04:01:00,
2013-04-29 00:02:00,52.0,39.0,30.15,SSE,148,8.0,9.0,61,0.00,,OVC070,0.00,VWS V14.01,2013-04-29 04:02:00,
2013-04-29 00:03:00,52.0,39.0,30.15,ESE,113,6.0,11.0,61,0.00,,OVC070,0.00,VWS V14.01,2013-04-29 04:03:00,
2013-04-29 00:08:00,52.1,39.1,30.15,SE,145,8.0,12.0,61,0.00,,OVC070,0.00,VWS V14.01,2013-04-29 04:08:00,
2013-04-29 00:13:00,52.2,38.8,30.15,ESE,120,11.0,13.0,60,0.00,,OVC070,0.00,VWS V14.01,2013-04-29 04:13:00,
2013-04-29 00:18:00,52.2,39.2,30.15,ESE,118,8.0,12.0,61,0.00,,OVC070,0.00,VWS V14.01,2013-04-29 04:18:00,
2013-04-29 00:23:00,52.1,39.1,30.15,ESE,113,13.0,14.0,61,0.00,,OVC070,0.00,VWS V14.01,2013-04-29 04:23:00,
2013-04-29 00:28:00,52.3,39.3,30.15,ESE,123,8.0,14.0,61,0.00,,OVC070,0.00,VWS V14.01,2013-04-29 04:28:00,
2013-04-29 00:34:00,52.4,39.4,30.15,ESE,110,10.0,12.0,61,0.00,,OVC070,0.00,VWS V14.01,2013-04-29 04:34:00,
2013-04-29 00:39:00,52.4,39.4,30.15,ESE,118,9.0,15.0,61,0.00,,OVC070,0.00,VWS V14.01,2013-04-29 04:39:00,
2013-04-29 00:44:00,52.4,39.4,30.15,ESE,119,11.0,13.0,61,0.00,,OVC070,0.00,VWS V14.01,2013-04-29 04:44:00,
2013-04-29 00:49:00,52.4,39.4,30.14,ESE,120,11.0,15.0,61,0.00,,OVC070,0.00,VWS V14.01,2013-04-29 04:49:00,
2013-04-29 00:54:00,52.4,39.4,30.14,SE,145,10.0,13.0,61,0.00,,OVC070,0.00,VWS V14.01,2013-04-29 04:54:00,
2013-04-29 00:59:00,52.5,39.0,30.14,ESE,118,9.0,13.0,60,0.00,,OVC070,0.00,VWS V14.01,2013-04-29 04:59:00,
2013-04-29 01:04:00,52.4,39.4,30.14,ESE,116,9.0,14.0,61,0.00,,OVC060,0.00,VWS V14.01,2013-04-29 05:04:00,
2013-04-29 01:09:00,52.5,39.5,30.14,SE,127,6.0,13.0,61,0.00,,OVC060,0.00,VWS V14.01,2013-04-29 05:09:00,
2013-04-29 01:14:00,52.5,39.5,30.14,SSE,148,5.0,14.0,61,0.00,,OVC060,0.00,VWS V14.01,2013-04-29 05:14:00,
2013-04-29 01:20:00,52.5,39.5,30.14,SE,132,5.0,11.0,61,0.00,,OVC060,0.00,VWS V14.01,2013-04-29 05:20:00,
2013-04-29 01:25:00,52.4,39.4,30.14,SE,127,8.0,11.0,61,0.00,,OVC060,0.00,VWS V14.01,2013-04-29 05:25:00,
2013-04-29 01:30:00,52.4,39.4,30.14,SE,127,6.0,11.0,61,0.00,,OVC060,0.00,VWS V14.01,2013-04-29 05:30:00,
2013-04-29 01:35:00,52.3,40.1,30.14,SE,125,5.0,8.0,63,0.00,,OVC060,0.00,VWS V14.01,2013-04-29 05:35:00,
2013-04-29 01:40:00,52.2,40.0,30.14,ESE,114,7.0,8.0,63,0.00,,OVC060,0.00,VWS V14.01,2013-04-29 05:40:00,
2013-04-29 01:45:00,52.2,40.0,30.14,SE,142,2.0,8.0,63,0.00,,OVC060,0.00,VWS V14.01,2013-04-29 05:45:00,
2013-04-29 01:50:00,52.1,40.3,30.14,SSE,168,4.0,7.0,64,0.00,,OVC060,0.00,VWS V14.01,2013-04-29 05:50:00,
2013-04-29 01:55:00,52.0,40.2,30.14,SE,127,7.0,8.0,64,0.00,,OVC060,0.00,VWS V14.01,2013-04-29 05:55:00,
2013-04-29 02:00:00,52.0,40.6,30.13,SE,145,8.0,8.0,65,0.00,,OVC060,0.00,VWS V14.01,2013-04-29 06:00:00,
2013-04-29 02:05:00,52.2,40.0,30.14,SE,129,5.0,11.0,63,0.00,,OVC060,0.00,VWS V14.01,2013-04-29 06:05:00,
2013-04-29 02:10:00,52.4,40.2,30.13,ESE,120,8.0,11.0,63,0.00,,OVC060,0.00,VWS V14.01,2013-04-29 06:10:00,
2013-04-29 02:15:00,52.3,40.9,30.13,SE,127,5.0,10.0,65,0.00,,OVC060,0.00,VWS V14.01,2013-04-29 06:15:00,
2013-04-29 02:20:00,52.2,40.4,30.13,SE,138,5.0,11.0,64,0.00,,OVC060,0.00,VWS V14.01,2013-04-29 06:20:00,
2013-04-29 02:25:00,52.3,40.5,30.13,ESE,110,7.0,11.0,64,0.00,,OVC060,0.00,VWS V14.01,2013-04-29 06:25:00,
2013-04-29 02:30:00,52.2,40.8,30.13,SSE,147,5.0,10.0,65,0.00,,OVC060,0.00,VWS V14.01,2013-04-29 06:30:00,
2013-04-29 02:35:00,52.1,41.1,30.13,ESE,117,6.0,8.0,66,0.00,,OVC060,0.00,VWS V14.01,2013-04-29 06:35:00,
2013-04-29 02:40:00,52.1,41.5,30.12,SE,134,10.0,11.0,67,0.00,,OVC060,0.00,VWS V14.01,2013-04-29 06:40:00,
2013-04-29 02:45:00,51.8,42.0,30.12,ESE,110,6.0,10.0,69,0.00,,OVC060,0.00,VWS V14.01,2013-04-29 06:45:00,
2013-04-29 02:50:00,51.8,41.6,30.12,ESE,122,4.0,12.0,68,0.00,,OVC060,0.00,VWS V14.01,2013-04-29 06:50:00,
2013-04-29 02:55:00,51.8,41.6,30.12,ESE,118,11.0,14.0,68,0.00,,OVC060,0.00,VWS V14.01,2013-04-29 06:55:00,
2013-04-29 03:00:00,52.0,42.2,30.11,ESE,119,8.0,13.0,69,0.00,,OVC060,0.00,VWS V14.01,2013-04-29 07:00:00,
2013-04-29 03:05:00,52.0,42.2,30.11,SE,145,8.0,12.0,69,0.00,,-RA,0.00,VWS V14.01,2013-04-29 07:05:00,
2013-04-29 03:10:00,51.9,42.4,30.12,ESE,117,4.0,10.0,70,0.00,,-RA,0.00,VWS V14.01,2013-04-29 07:10:00,
2013-04-29 03:15:00,51.8,42.7,30.12,SE,136,9.0,10.0,71,0.00,,-RA,0.00,VWS V14.01,2013-04-29 07:15:00,
2013-04-29 03:20:00,51.8,43.1,30.12,ESE,118,7.0,12.0,72,0.00,,-RA,0.00,VWS V14.01,2013-04-29 07:20:00,
2013-04-29 03:25:00,51.8,43.1,30.12,ESE,109,6.0,9.0,72,0.00,,-RA,0.00,VWS V14.01,2013-04-29 07:25:00,
2013-04-29 03:30:00,51.8,43.4,30.11,ESE,116,7.0,9.0,73,0.00,,-RA,0.00,VWS V14.01,2013-04-29 07:30:00,
2013-04-29 03:35:00,51.7,43.7,30.11,ESE,122,6.0,10.0,74,0.00,,-RA,0.00,VWS V14.01,2013-04-29 07:35:00,
2013-04-29 03:40:00,51.7,43.7,30.11,East,100,5.0,12.0,74,0.00,,-RA,0.00,VWS V14.01,2013-04-29 07:40:00,
2013-04-29 03:45:00,51.6,44.3,30.11,SE,127,6.0,11.0,76,0.00,,-RA,0.00,VWS V14.01,2013-04-29 07:45:00,
2013-04-29 03:50:00,51.6,44.3,30.11,ESE,122,7.0,11.0,76,0.00,,-RA,0.00,VWS V14.01,2013-04-29 07:50:00,
2013-04-29 03:55:00,51.6,44.6,30.11,ESE,119,6.0,12.0,77,0.00,,-RA,0.00,VWS V14.01,2013-04-29 07:55:00,
2013-04-29 04:00:00,51.5,44.9,30.11,SE,139,6.0,11.0,78,0.00,,-RA,0.00,VWS V14.01,2013-04-29 08:00:00,
2013-04-29 04:05:00,51.6,45.3,30.11,SE,137,4.0,11.0,79,0.00,,OVC046,0.00,VWS V14.01,2013-04-29 08:05:00,
2013-04-29 04:10:00,51.5,45.5,30.11,SE,129,5.0,12.0,80,0.00,,OVC046,0.00,VWS V14.01,2013-04-29 08:10:00,
2013-04-29 04:15:00,51.4,45.8,30.11,ESE,120,3.0,9.0,81,0.00,,OVC046,0.00,VWS V14.01,2013-04-29 08:15:00,
2013-04-29 04:20:00,51.3,46.0,30.11,SE,137,3.0,12.0,82,0.00,,OVC046,0.00,VWS V14.01,2013-04-29 08:20:00,
2013-04-29 04:25:00,51.2,46.2,30.11,East,96,3.0,10.0,83,0.00,,OVC046,0.00,VWS V14.01,2013-04-29 08:25:00,
2013-04-29 04:30:00,51.1,46.4,30.11,ESE,116,6.0,12.0,84,0.00,,OVC046,0.00,VWS V14.01,2013-04-29 08:30:00,
2013-04-29 04:35:00,51.0,46.7,30.11,ESE,117,7.0,9.0,85,0.00,,OVC046,0.00,VWS V14.01,2013-04-29 08:35:00,
2013-04-29 04:40:00,50.9,46.9,30.11,ESE,111,5.0,10.0,86,0.00,,OVC046,0.00,VWS V14.01,2013-04-29 08:40:00,
2013-04-29 04:45:00,50.9,47.2,30.11,SE,131,4.0,10.0,87,0.00,,OVC046,0.00,VWS V14.01,2013-04-29 08:45:00,
2013-04-29 04:50:00,50.8,47.4,30.11,SE,129,7.0,11.0,88,0.00,,OVC046,0.00,VWS V14.01,2013-04-29 08:50:00,
2013-04-29 04:55:00,50.8,47.4,30.11,ESE,113,3.0,8.0,88,0.00,,OVC046,0.00,VWS V14.01,2013-04-29 08:55:00,
2013-04-29 05:00:00,50.7,47.6,30.11,ESE,113,3.0,8.0,89,0.00,,OVC046,0.00,VWS V14.01,2013-04-29 09:00:00,
2013-04-29 05:05:00,50.7,47.9,30.10,East,100,6.0,8.0,90,0.00,,,0.00,VWS V14.01,2013-04-29 09:05:00,
2013-04-29 05:10:00,50.6,47.8,30.10,ESE,119,4.0,7.0,90,0.00,,,0.00,VWS V14.01,2013-04-29 09:10:00,
2013-04-29 05:15:00,50.5,48.0,30.10,ESE,105,6.0,7.0,91,0.00,,,0.00,VWS V14.01,2013-04-29 09:15:00,
2013-04-29 05:20:00,50.4,48.2,30.10,ESE,105,4.0,10.0,92,0.00,,,0.00,VWS V14.01,2013-04-29 09:20:00,
2013-04-29 05:25:00,50.4,48.5,30.10,SSE,147,5.0,11.0,93,0.00,,,0.00,VWS V14.01,2013-04-29 09:25:00,
2013-04-29 05:30:00,50.3,48.6,30.10,ESE,110,8.0,9.0,94,0.00,,,0.00,VWS V14.01,2013-04-29 09:30:00,
2013-04-29 05:35:00,50.3,48.6,30.10,SE,124,7.0,10.0,94,0.00,,,0.00,VWS V14.01,2013-04-29 09:35:00,
2013-04-29 05:40:00,50.3,48.9,30.10,ESE,103,5.0,10.0,95,0.01,,,0.01,VWS V14.01,2013-04-29 09:40:00,
2013-04-29 05:45:00,50.3,48.9,30.10,East,98,5.0,14.0,95,0.01,,,0.01,VWS V14.01,2013-04-29 09:45:00,
2013-04-29 05:50:00,50.3,48.9,30.10,ESE,116,6.0,10.0,95,0.01,,,0.01,VWS V14.01,2013-04-29 09:50:00,
2013-04-29 05:55:00,50.2,48.8,30.10,SE,131,5.0,10.0,95,0.01,,,0.01,VWS V14.01,2013-04-29 09:55:00,
2013-04-29 06:00:00,50.3,49.2,30.10,ESE,123,7.0,10.0,96,0.01,,,0.01,VWS V14.01,2013-04-29 10:00:00,
2013-04-29 06:05:00,50.3,49.2,30.10,ESE,113,8.0,11.0,96,0.01,,-RA,0.01,VWS V14.01,2013-04-29 10:05:00,
2013-04-29 06:10:00,50.3,49.2,30.10,East,101,3.0,9.0,96,0.01,,-RA,0.01,VWS V14.01,2013-04-29 10:10:00,
2013-04-29 06:15:00,50.3,49.2,30.10,East,79,3.0,7.0,96,0.02,,-RA,0.02,VWS V14.01,2013-04-29 10:15:00,
2013-04-29 06:20:00,50.3,49.2,30.10,ESE,103,2.0,10.0,96,0.02,,-RA,0.02,VWS V14.01,2013-04-29 10:20:00,
2013-04-29 06:25:00,50.2,49.1,30.10,ESE,113,5.0,9.0,96,0.02,,-RA,0.02,VWS V14.01,2013-04-29 10:25:00,
2013-04-29 06:30:00,50.2,49.1,30.10,East,91,4.0,6.0,96,0.03,,-RA,0.03,VWS V14.01,2013-04-29 10:30:00,
2013-04-29 06:35:00,50.2,49.4,30.10,ESE,109,1.0,7.0,97,0.03,,-RA,0.03,VWS V14.01,2013-04-29 10:35:00,
2013-04-29 06:40:00,50.3,49.5,30.10,East,98,2.0,9.0,97,0.03,,-RA,0.03,VWS V14.01,2013-04-29 10:40:00,
2013-04-29 06:45:00,50.3,49.5,30.11,ESE,113,3.0,8.0,97,0.02,,-RA,0.03,VWS V14.01,2013-04-29 10:45:00,
2013-04-29 06:50:00,50.3,49.5,30.11,East,98,2.0,7.0,97,0.03,,-RA,0.04,VWS V14.01,2013-04-29 10:50:00,
2013-04-29 06:55:00,50.3,49.5,30.11,East,101,6.0,9.0,97,0.03,,-RA,0.04,VWS V14.01,2013-04-29 10:55:00,
2013-04-29 07:00:00,50.4,49.6,30.11,ESE,107,5.0,7.0,97,0.03,,-RA,0.04,VWS V14.01,2013-04-29 11:00:00,
2013-04-29 07:05:00,50.4,49.6,30.11,ESE,110,3.0,5.0,97,0.04,,-RA,0.05,VWS V14.01,2013-04-29 11:05:00,
2013-04-29 07:10:00,50.5,49.7,30.11,East,89,1.0,7.0,97,0.04,,-RA,0.05,VWS V14.01,2013-04-29 11:10:00,
2013-04-29 07:15:00,50.6,49.8,30.11,East,79,3.0,7.0,97,0.04,,-RA,0.05,VWS V14.01,2013-04-29 11:15:00,
2013-04-29 07:20:00,50.7,49.9,30.11,ESE,110,6.0,11.0,97,0.04,,-RA,0.06,VWS V14.01,2013-04-29 11:20:00,
2013-04-29 07:25:00,50.8,50.0,30.11,ESE,108,3.0,10.0,97,0.04,,-RA,0.06,VWS V14.01,2013-04-29 11:25:00,
2013-04-29 07:30:00,50.8,50.0,30.11,ESE,116,5.0,11.0,97,0.05,,-RA,0.07,VWS V14.01,2013-04-29 11:30:00,
2013-04-29 07:35:00,50.9,50.1,30.11,East,95,2.0,11.0,97,0.04,,-RA,0.07,VWS V14.01,2013-04-29 11:35:00,
2013-04-29 07:40:00,51.0,50.2,30.11,ESE,116,6.0,6.0,97,0.04,,-RA,0.07,VWS V14.01,2013-04-29 11:40:00,
2013-04-29 07:45:00,51.0,50.2,30.11,ESE,119,6.0,13.0,97,0.04,,-RA,0.07,VWS V14.01,2013-04-29 11:45:00,
2013-04-29 07:50:00,51.1,50.3,30.11,ESE,118,7.0,11.0,97,0.04,,-RA,0.07,VWS V14.01,2013-04-29 11:50:00,
2013-04-29 07:55:00,51.2,50.4,30.11,East,94,5.0,8.0,97,0.04,,-RA,0.08,VWS V14.01,2013-04-29 11:55:00,
2013-04-29 08:00:00,51.3,50.5,30.11,SE,125,4.0,8.0,97,0.04,,-RA,0.08,VWS V14.01,2013-04-29 12:00:00,
2013-04-29 08:05:00,51.4,50.6,30.12,ESE,121,6.0,8.0,97,0.04,,-RA,0.08,VWS V14.01,2013-04-29 12:05:00,
2013-04-29 08:10:00,51.4,50.6,30.12,ESE,118,4.0,6.0,97,0.04,,-RA,0.09,VWS V14.01,2013-04-29 12:10:00,
2013-04-29 08:15:00,51.5,50.7,30.11,SE,133,7.0,8.0,97,0.04,,-RA,0.09,VWS V14.01,2013-04-29 12:15:00,
2013-04-29 08:20:00,51.5,50.7,30.11,ESE,119,7.0,10.0,97,0.04,,-RA,0.09,VWS V14.01,2013-04-29 12:20:00,
2013-04-29 08:25:00,51.6,50.8,30.11,SE,134,6.0,10.0,97,0.04,,-RA,0.10,VWS V14.01,2013-04-29 12:25:00,
2013-04-29 08:30:00,51.7,50.9,30.11,ESE,115,6.0,10.0,97,0.04,,-RA,0.10,VWS V14.01,2013-04-29 12:30:00,
2013-04-29 08:35:00,51.8,51.0,30.11,ESE,120,4.0,9.0,97,0.04,,-RA,0.11,VWS V14.01,2013-04-29 12:35:00,
2013-04-29 08:40:00,51.8,51.0,30.11,SE,137,6.0,12.0,97,0.04,,-RA,0.11,VWS V14.01,2013-04-29 12:40:00,
2013-04-29 08:45:00,51.8,51.0,30.11,ESE,115,7.0,9.0,97,0.04,,-RA,0.11,VWS V14.01,2013-04-29 12:45:00,
2013-04-29 08:50:00,51.8,51.0,30.11,SE,132,6.0,10.0,97,0.05,,-RA,0.12,VWS V14.01,2013-04-29 12:50:00,
2013-04-29 08:55:00,51.9,51.1,30.11,ESE,121,10.0,12.0,97,0.05,,-RA,0.12,VWS V14.01,2013-04-29 12:55:00,
2013-04-29 09:00:00,52.0,51.2,30.11,SE,134,4.0,11.0,97,0.04,,-RA,0.12,VWS V14.01,2013-04-29 13:00:00,
2013-04-29 09:05:00,52.0,51.2,30.11,SE,129,7.0,11.0,97,0.04,,-RA,0.12,VWS V14.01,2013-04-29 13:05:00,
2013-04-29 09:10:00,52.0,51.2,30.11,ESE,114,12.0,15.0,97,0.04,,-RA,0.12,VWS V14.01,2013-04-29 13:10:00,
2013-04-29 09:15:00,52.1,51.3,30.11,SE,137,8.0,13.0,97,0.03,,-RA,0.12,VWS V14.01,2013-04-29 13:15:00,
2013-04-29 09:20:00,52.1,51.3,30.11,ESE,115,7.0,12.0,97,0.03,,-RA,0.12,VWS V14.01,2013-04-29 13:20:00,
2013-04-29 09:25:00,52.2,51.4,30.11,SE,134,12.0,15.0,97,0.03,,-RA,0.12,VWS V14.01,2013-04-29 13:25:00,
2013-04-29 09:30:00,52.2,51.4,30.11,SE,124,8.0,14.0,97,0.02,,-RA,0.12,VWS V14.01,2013-04-29 13:30:00,
2013-04-29 09:35:00,52.3,51.5,30.10,SE,129,8.0,15.0,97,0.02,,-RA,0.12,VWS V14.01,2013-04-29 13:35:00,
2013-04-29 09:40:00,52.3,51.5,30.10,SE,141,7.0,11.0,97,0.01,,-RA,0.12,VWS V14.01,2013-04-29 13:40:00,
2013-04-29 09:45:00,52.4,51.6,30.10,SE,139,11.0,19.0,97,0.02,,-RA,0.13,VWS V14.01,2013-04-29 13:45:00,
2013-04-29 09:50:00,52.6,51.8,30.10,SE,141,6.0,11.0,97,0.02,,-RA,0.13,VWS V14.01,2013-04-29 13:50:00,
2013-04-29 09:55:00,52.7,51.9,30.10,SE,134,10.0,11.0,97,0.03,,-RA,0.15,VWS V14.01,2013-04-29 13:55:00,
2013-04-29 10:00:00,52.8,52.0,30.10,SE,131,7.0,12.0,97,0.04,,-RA,0.16,VWS V14.01,2013-04-29 14:00:00,
2013-04-29 10:05:00,52.9,52.1,30.10,ESE,121,6.0,8.0,97,0.05,,RA,0.17,VWS V14.01,2013-04-29 14:05:00,
2013-04-29 10:10:00,52.9,52.1,30.10,SE,130,6.0,7.0,97,0.06,,RA,0.18,VWS V14.01,2013-04-29 14:10:00,
2013-04-29 10:15:00,52.9,52.1,30.10,ESE,115,7.0,7.0,97,0.06,,RA,0.18,VWS V14.01,2013-04-29 14:15:00,
2013-04-29 10:20:00,53.1,52.3,30.10,SE,129,7.0,9.0,97,0.07,,RA,0.19,VWS V14.01,2013-04-29 14:20:00,
2013-04-29 10:25:00,53.2,52.4,30.10,SE,132,7.0,10.0,97,0.07,,RA,0.19,VWS V14.01,2013-04-29 14:25:00,
2013-04-29 10:30:00,53.2,52.4,30.10,ESE,102,7.0,7.0,97,0.08,,RA,0.20,VWS V14.01,2013-04-29 14:30:00,
2013-04-29 10:35:00,53.3,52.5,30.10,East,101,2.0,5.0,97,0.09,,RA,0.21,VWS V14.01,2013-04-29 14:35:00,
2013-04-29 10:40:00,53.4,52.6,30.10,SE,131,3.0,5.0,97,0.10,,RA,0.22,VWS V14.01,2013-04-29 14:40:00,
2013-04-29 10:46:00,53.4,52.6,30.10,ESE,113,7.0,9.0,97,0.10,,RA,0.23,VWS V14.01,2013-04-29 14:46:00,
2013-04-29 10:51:00,53.5,52.7,30.10,ESE,122,4.0,6.0,97,0.10,,RA,0.23,VWS V14.01,2013-04-29 14:51:00,
2013-04-29 10:56:00,53.5,52.7,30.10,ESE,118,4.0,6.0,97,0.08,,RA,0.23,VWS V14.01,2013-04-29 14:56:00,
2013-04-29 11:01:00,53.5,52.7,30.10,ESE,103,7.0,7.0,97,0.08,,-RA,0.24,VWS V14.01,2013-04-29 15:01:00,
2013-04-29 11:06:00,53.6,52.8,30.10,SE,128,6.0,9.0,97,0.07,,-RA,0.24,VWS V14.01,2013-04-29 15:06:00,
2013-04-29 11:11:00,53.6,52.8,30.10,ESE,114,5.0,10.0,97,0.07,,-RA,0.25,VWS V14.01,2013-04-29 15:11:00,
2013-04-29 11:16:00,53.8,53.0,30.10,East,95,9.0,10.0,97,0.08,,-RA,0.26,VWS V14.01,2013-04-29 15:16:00,
2013-04-29 11:21:00,54.0,53.2,30.09,SE,130,4.0,8.0,97,0.07,,-RA,0.26,VWS V14.01,2013-04-29 15:21:00,
2013-04-29 11:26:00,54.1,53.3,30.09,ESE,113,6.0,11.0,97,0.07,,-RA,0.26,VWS V14.01,2013-04-29 15:26:00,
2013-04-29 11:32:00,54.0,53.2,30.10,ESE,121,5.0,6.0,97,0.06,,-RA,0.26,VWS V14.01,2013-04-29 15:32:00,
2013-04-29 11:37:00,54.1,53.0,30.09,ESE,123,11.0,11.0,96,0.05,,-RA,0.26,VWS V14.01,2013-04-29 15:37:00,
2013-04-29 11:42:00,54.1,53.3,30.09,ESE,115,6.0,8.0,97,0.04,,-RA,0.26,VWS V14.01,2013-04-29 15:42:00,
2013-04-29 11:47:00,54.1,53.0,30.09,ESE,119,8.0,11.0,96,0.04,,-RA,0.27,VWS V14.01,2013-04-29 15:47:00,
2013-04-29 11:52:00,54.4,53.6,30.09,East,101,8.0,9.0,97,0.04,,-RA,0.27,VWS V14.01,2013-04-29 15:52:00,
2013-04-29 11:57:00,54.4,53.6,30.09,East,98,5.0,11.0,97,0.04,,-RA,0.27,VWS V14.01,2013-04-29 15:57:00,
2013-04-29 12:02:00,54.5,53.7,30.09,SE,139,6.0,7.0,97,0.03,,-RA,0.27,VWS V14.01,2013-04-29 16:02:00,
2013-04-29 12:07:00,54.5,53.7,30.09,ESE,114,6.0,12.0,97,0.04,,-RA,0.28,VWS V14.01,2013-04-29 16:07:00,
2013-04-29 12:13:00,54.6,53.8,30.09,East,101,4.0,10.0,97,0.03,,-RA,0.28,VWS V14.01,2013-04-29 16:13:00,
2013-04-29 12:18:00,54.8,54.0,30.09,ESE,115,6.0,12.0,97,0.03,,-RA,0.29,VWS V14.01,2013-04-29 16:18:00,
2013-04-29 12:23:00,54.8,54.0,30.08,ESE,110,10.0,11.0,97,0.04,,-RA,0.30,VWS V14.01,2013-04-29 16:23:00,
2013-04-29 12:28:00,54.8,53.7,30.08,SE,136,8.0,15.0,96,0.04,,-RA,0.30,VWS V14.01,2013-04-29 16:28:00,
2013-04-29 12:33:00,55.1,54.0,30.08,East,99,7.0,11.0,96,0.04,,-RA,0.30,VWS V14.01,2013-04-29 16:33:00,
2013-04-29 12:38:00,55.1,54.3,30.08,SE,143,8.0,11.0,97,0.04,,-RA,0.30,VWS V14.01,2013-04-29 16:38:00,
2013-04-29 12:43:00,55.0,53.9,30.08,ESE,105,12.0,13.0,96,0.05,,-RA,0.31,VWS V14.01,2013-04-29 16:43:00,
2013-04-29 12:48:00,54.9,53.8,30.08,ESE,105,12.0,15.0,96,0.04,,-RA,0.31,VWS V14.01,2013-04-29 16:48:00,
2013-04-29 12:53:00,54.9,53.8,30.08,ESE,107,10.0,13.0,96,0.04,,-RA,0.31,VWS V14.01,2013-04-29 16:53:00,
2013-04-29 12:59:00,55.1,54.3,30.08,ESE,102,8.0,12.0,97,0.04,,-RA,0.31,VWS V14.01,2013-04-29 16:59:00,
2013-04-29 13:04:00,55.3,54.5,30.07,ESE,108,6.0,12.0,97,0.05,,-RA,0.32,VWS V14.01,2013-04-29 17:04:00,
2013-04-29 13:09:00,55.3,54.5,30.08,ESE,108,10.0,12.0,97,0.05,,-RA,0.32,VWS V14.01,2013-04-29 17:09:00,
2013-04-29 13:14:00,55.5,54.7,30.07,ESE,112,9.0,16.0,97,0.04,,-RA,0.32,VWS V14.01,2013-04-29 17:14:00,
2013-04-29 13:19:00,55.6,54.8,30.08,SE,139,6.0,13.0,97,0.03,,-RA,0.32,VWS V14.01,2013-04-29 17:19:00,
2013-04-29 13:24:00,55.5,54.7,30.07,SE,128,8.0,13.0,97,0.03,,-RA,0.32,VWS V14.01,2013-04-29 17:24:00,
2013-04-29 13:29:00,55.4,54.6,30.07,ESE,105,12.0,12.0,97,0.03,,-RA,0.33,VWS V14.01,2013-04-29 17:29:00,
2013-04-29 13:34:00,55.5,54.7,30.07,SE,134,10.0,14.0,97,0.03,,-RA,0.33,VWS V14.01,2013-04-29 17:34:00,
2013-04-29 13:40:00,55.6,54.8,30.07,SE,130,8.0,14.0,97,0.03,,-RA,0.33,VWS V14.01,2013-04-29 17:40:00,
2013-04-29 13:45:00,55.7,54.9,30.07,East,96,9.0,14.0,97,0.03,,-RA,0.34,VWS V14.01,2013-04-29 17:45:00,
2013-04-29 13:50:00,55.9,55.1,30.07,SE,134,7.0,13.0,97,0.04,,-RA,0.35,VWS V14.01,2013-04-29 17:50:00,
2013-04-29 13:55:00,55.9,55.1,30.07,East,100,8.0,14.0,97,0.04,,-RA,0.35,VWS V14.01,2013-04-29 17:55:00,
2013-04-29 14:00:00,56.2,55.4,30.07,East,98,6.0,13.0,97,0.04,,-RA,0.35,VWS V14.01,2013-04-29 18:00:00,
2013-04-29 14:05:00,56.3,55.5,30.07,ESE,107,11.0,14.0,97,0.05,,-RA,0.36,VWS V14.01,2013-04-29 18:05:00,
2013-04-29 14:10:00,56.3,55.5,30.07,SE,131,8.0,12.0,97,0.04,,-RA,0.36,VWS V14.01,2013-04-29 18:10:00,
2013-04-29 14:15:00,56.2,55.4,30.07,SE,125,13.0,15.0,97,0.05,,-RA,0.37,VWS V14.01,2013-04-29 18:15:00,
2013-04-29 14:20:00,56.4,55.8,30.07,SE,127,8.0,13.0,98,0.05,,-RA,0.37,VWS V14.01,2013-04-29 18:20:00,
2013-04-29 14:25:00,56.3,55.5,30.07,SE,136,9.0,14.0,97,0.05,,-RA,0.37,VWS V14.01,2013-04-29 18:25:00,
2013-04-29 14:30:00,56.2,55.4,30.07,SE,136,8.0,14.0,97,0.05,,-RA,0.37,VWS V14.01,2013-04-29 18:30:00,
2013-04-29 14:35:00,56.3,55.5,30.07,SE,135,9.0,13.0,97,0.05,,-RA,0.38,VWS V14.01,2013-04-29 18:35:00,
2013-04-29 14:40:00,56.3,55.5,30.07,ESE,122,10.0,14.0,97,0.06,,-RA,0.39,VWS V14.01,2013-04-29 18:40:00,
2013-04-29 14:45:00,56.3,55.5,30.07,SSE,149,7.0,12.0,97,0.07,,-RA,0.40,VWS V14.01,2013-04-29 18:45:00,
2013-04-29 14:50:00,56.4,55.8,30.07,SSE,152,8.0,12.0,98,0.07,,-RA,0.41,VWS V14.01,2013-04-29 18:50:00,
2013-04-29 14:55:00,56.4,55.8,30.07,SSW,210,7.0,14.0,98,0.07,,-RA,0.42,VWS V14.01,2013-04-29 18:55:00,
2013-04-29 15:00:00,56.4,55.8,30.06,SSW,203,7.0,12.0,98,0.07,,-RA,0.42,VWS V14.01,2013-04-29 19:00:00,
2013-04-29 15:05:00,56.4,55.8,30.06,SSE,153,6.0,11.0,98,0.08,,-RA,0.43,VWS V14.01,2013-04-29 19:05:00,
2013-04-29 15:10:00,56.4,55.8,30.06,SSE,151,4.0,10.0,98,0.08,,-RA,0.44,VWS V14.01,2013-04-29 19:10:00,
2013-04-29 15:15:00,56.3,55.8,30.06,SE,139,9.0,12.0,98,0.08,,-RA,0.44,VWS V14.01,2013-04-29 19:15:00,
2013-04-29 15:20:00,56.2,55.7,30.06,SSE,158,5.0,11.0,98,0.08,,-RA,0.45,VWS V14.01,2013-04-29 19:20:00,
2013-04-29 15:25:00,56.1,55.5,30.06,SSE,149,7.0,13.0,98,0.08,,-RA,0.45,VWS V14.01,2013-04-29 19:25:00,
2013-04-29 15:30:00,56.1,55.5,30.06,SE,127,11.0,11.0,98,0.08,,-RA,0.45,VWS V14.01,2013-04-29 19:30:00,
2013-04-29 15:35:00,56.1,55.5,30.06,SSE,155,10.0,14.0,98,0.08,,,0.45,VWS V14.01,2013-04-29 19:35:00,
2013-04-29 15:40:00,56.1,55.5,30.06,SSE,151,10.0,15.0,98,0.07,,,0.45,VWS V14.01,2013-04-29 19:40:00,
2013-04-29 15:45:00,56.1,55.5,30.06,SE,131,12.0,16.0,98,0.06,,,0.45,VWS V14.01,2013-04-29 19:45:00,
2013-04-29 15:50:00,56.2,55.4,30.06,SE,139,9.0,14.0,97,0.05,,,0.45,VWS V14.01,2013-04-29 19:50:00,
2013-04-29 15:55:00,56.3,55.5,30.06,SSE,149,7.0,12.0,97,0.04,,,0.45,VWS V14.01,2013-04-29 19:55:00,
2013-04-29 16:00:00,56.3,55.8,30.06,SE,134,6.0,10.0,98,0.03,,,0.45,VWS V14.01,2013-04-29 20:00:00,
2013-04-29 16:05:00,56.2,55.7,30.06,ESE,123,7.0,13.0,98,0.03,,-RA,0.45,VWS V14.01,2013-04-29 20:05:00,
2013-04-29 16:10:00,56.1,55.3,30.06,SSE,160,7.0,13.0,97,0.02,,-RA,0.45,VWS V14.01,2013-04-29 20:10:00,
2013-04-29 16:15:00,56.1,55.5,30.06,SE,134,5.0,12.0,98,0.01,,-RA,0.45,VWS V14.01,2013-04-29 20:15:00,
2013-04-29 16:20:00,55.9,55.1,30.06,SE,134,11.0,17.0,97,0.01,,-RA,0.45,VWS V14.01,2013-04-29 20:20:00,
2013-04-29 16:25:00,55.9,55.1,30.06,SE,142,7.0,15.0,97,0.00,,-RA,0.45,VWS V14.01,2013-04-29 20:25:00,
2013-04-29 16:30:00,55.9,55.1,30.06,SE,138,12.0,18.0,97,0.00,,-RA,0.45,VWS V14.01,2013-04-29 20:30:00,
2013-04-29 16:35:00,56.0,55.2,30.06,SSE,148,9.0,17.0,97,0.00,,OVC018,0.45,VWS V14.01,2013-04-29 20:35:00,
2013-04-29 16:40:00,55.9,55.1,30.06,SSE,162,5.0,14.0,97,0.00,,OVC018,0.45,VWS V14.01,2013-04-29 20:40:00,
2013-04-29 16:45:00,55.9,55.3,30.06,SSE,163,5.0,12.0,98,0.00,,OVC018,0.45,VWS V14.01,2013-04-29 20:45:00,
2013-04-29 16:50:00,55.9,55.3,30.06,SE,135,9.0,10.0,98,0.00,,OVC018,0.45,VWS V14.01,2013-04-29 20:50:00,
2013-04-29 16:55:00,55.9,55.3,30.06,SSE,155,5.0,13.0,98,0.00,,OVC018,0.45,VWS V14.01,2013-04-29 20:55:00,
2013-04-29 17:00:00,55.9,55.3,30.06,SE,139,5.0,10.0,98,0.00,,OVC018,0.45,VWS V14.01,2013-04-29 21:00:00,
2013-04-29 17:05:00,55.9,55.3,30.06,SE,139,8.0,11.0,98,0.01,,,0.46,VWS V14.01,2013-04-29 21:05:00,
2013-04-29 17:10:00,55.8,55.2,30.07,SE,130,6.0,11.0,98,0.01,,,0.46,VWS V14.01,2013-04-29 21:10:00,
2013-04-29 17:15:00,55.8,55.2,30.07,SE,129,9.0,12.0,98,0.01,,,0.46,VWS V14.01,2013-04-29 21:15:00,
2013-04-29 17:20:00,55.7,55.2,30.07,SSE,147,6.0,11.0,98,0.01,,,0.46,VWS V14.01,2013-04-29 21:20:00,
2013-04-29 17:25:00,55.7,55.2,30.07,SE,144,7.0,12.0,98,0.01,,,0.46,VWS V14.01,2013-04-29 21:25:00,
2013-04-29 17:30:00,55.7,55.2,30.07,ESE,120,12.0,12.0,98,0.02,,,0.47,VWS V14.01,2013-04-29 21:30:00,
2013-04-29 17:35:00,55.6,55.0,30.07,SE,136,5.0,15.0,98,0.02,,-RA,0.47,VWS V14.01,2013-04-29 21:35:00,
2013-04-29 17:40:00,55.5,55.0,30.07,ESE,113,12.0,13.0,98,0.02,,-RA,0.47,VWS V14.01,2013-04-29 21:40:00,
2013-04-29 17:45:00,55.5,55.0,30.07,SE,136,7.0,12.0,98,0.02,,-RA,0.47,VWS V14.01,2013-04-29 21:45:00,
2013-04-29 17:50:00,55.4,54.8,30.07,SE,125,12.0,14.0,98,0.02,,-RA,0.47,VWS V14.01,2013-04-29 21:50:00,
2013-04-29 17:55:00,55.4,54.8,30.07,SSE,158,7.0,12.0,98,0.02,,-RA,0.47,VWS V14.01,2013-04-29 21:55:00,
2013-04-29 18:00:00,55.4,54.8,30.07,SSE,158,8.0,12.0,98,0.03,,-RA,0.48,VWS V14.01,2013-04-29 22:00:00,
2013-04-29 18:05:00,55.4,54.8,30.07,SE,135,7.0,12.0,98,0.03,,,0.48,VWS V14.01,2013-04-29 22:05:00,
2013-04-29 18:10:00,55.3,54.8,30.07,SE,131,7.0,14.0,98,0.02,,,0.48,VWS V14.01,2013-04-29 22:10:00,
2013-04-29 18:15:00,55.4,54.8,30.07,SE,124,7.0,11.0,98,0.02,,,0.48,VWS V14.01,2013-04-29 22:15:00,
2013-04-29 18:20:00,55.3,54.8,30.07,SE,142,17.0,21.0,98,0.02,,,0.48,VWS V14.01,2013-04-29 22:20:00,
2013-04-29 18:25:00,55.2,54.7,30.07,ESE,119,12.0,17.0,98,0.02,,,0.48,VWS V14.01,2013-04-29 22:25:00,
2013-04-29 18:30:00,55.1,54.5,30.08,SE,144,10.0,19.0,98,0.02,,,0.48,VWS V14.01,2013-04-29 22:30:00,
2013-04-29 18:35:00,54.9,54.3,30.08,SE,129,9.0,14.0,98,0.01,,-RA,0.48,VWS V14.01,2013-04-29 22:35:00,
2013-04-29 18:40:00,54.9,54.1,30.07,ESE,119,13.0,16.0,97,0.01,,-RA,0.48,VWS V14.01,2013-04-29 22:40:00,
2013-04-29 18:45:00,54.7,53.9,30.08,SE,145,8.0,18.0,97,0.01,,-RA,0.48,VWS V14.01,2013-04-29 22:45:00,
2013-04-29 18:50:00,54.7,53.9,30.08,SE,138,8.0,17.0,97,0.01,,-RA,0.48,VWS V14.01,2013-04-29 22:50:00,
2013-04-29 18:55:00,54.6,54.0,30.08,SE,139,12.0,17.0,98,0.01,,-RA,0.48,VWS V14.01,2013-04-29 22:55:00,
2013-04-29 19:00:00,54.7,53.9,30.08,SE,125,10.0,17.0,97,0.01,,-RA,0.48,VWS V14.01,2013-04-29 23:00:00,
2013-04-29 19:05:00,54.7,53.9,30.08,SE,143,9.0,14.0,97,0.00,,,0.48,VWS V14.01,2013-04-29 23:05:00,
2013-04-29 19:10:00,54.8,54.0,30.08,ESE,122,10.0,14.0,97,0.00,,,0.48,VWS V14.01,2013-04-29 23:10:00,
2013-04-29 19:15:00,54.8,54.0,30.08,ESE,107,11.0,15.0,97,0.00,,,0.48,VWS V14.01,2013-04-29 23:15:00,
2013-04-29 19:20:00,54.8,54.0,30.08,SE,129,12.0,19.0,97,0.00,,,0.48,VWS V14.01,2013-04-29 23:20:00,
2013-04-29 19:25:00,54.9,53.8,30.08,SE,125,10.0,17.0,96,0.00,,,0.48,VWS V14.01,2013-04-29 23:25:00,
2013-04-29 19:30:00,54.8,53.7,30.08,SE,131,10.0,17.0,96,0.00,,,0.48,VWS V14.01,2013-04-29 23:30:00,
2013-04-29 19:35:00,54.8,53.4,30.08,ESE,123,14.0,16.0,95,0.00,,OVC032,0.48,VWS V14.01,2013-04-29 23:35:00,
2013-04-29 19:40:00,54.8,53.4,30.08,SE,132,9.0,15.0,95,0.00,,OVC032,0.48,VWS V14.01,2013-04-29 23:40:00,
2013-04-29 19:45:00,54.8,53.4,30.08,SE,134,9.0,15.0,95,0.00,,OVC032,0.48,VWS V14.01,2013-04-29 23:45:00,
2013-04-29 19:50:00,54.8,53.4,30.08,SE,142,8.0,15.0,95,0.00,,OVC032,0.48,VWS V14.01,2013-04-29 23:50:00,
2013-04-29 19:55:00,54.7,53.3,30.08,SE,134,9.0,13.0,95,0.00,,OVC032,0.48,VWS V14.01,2013-04-29 23:55:00,
2013-04-29 20:00:00,54.7,53.3,30.08,SE,142,8.0,11.0,95,0.00,,OVC032,0.48,VWS V14.01,2013-04-30 00:00:00,
2013-04-29 20:05:00,54.6,53.2,30.09,SE,130,10.0,12.0,95,0.00,,OVC025,0.48,VWS V14.01,2013-04-30 00:05:00,
2013-04-29 20:10:00,54.7,53.3,30.09,SSE,148,6.0,8.0,95,0.00,,OVC025,0.48,VWS V14.01,2013-04-30 00:10:00,
2013-04-29 20:15:00,54.6,53.2,30.09,SE,136,5.0,6.0,95,0.00,,OVC025,0.48,VWS V14.01,2013-04-30 00:15:00,
2013-04-29 20:20:00,54.6,53.5,30.09,SE,134,9.0,10.0,96,0.00,,OVC025,0.48,VWS V14.01,2013-04-30 00:20:00,
2013-04-29 20:25:00,54.5,53.4,30.09,SE,135,10.0,10.0,96,0.00,,OVC025,0.48,VWS V14.01,2013-04-30 00:25:00,
2013-04-29 20:30:00,54.6,53.5,30.09,SE,131,9.0,13.0,96,0.00,,OVC016,0.48,VWS V14.01,2013-04-30 00:30:00,
2013-04-29 20:36:00,54.5,53.4,30.10,SSE,165,4.0,8.0,96,0.00,,OVC016,0.48,VWS V14.01,2013-04-30 00:36:00,
2013-04-29 20:41:00,54.5,53.4,30.10,SE,145,9.0,11.0,96,0.00,,OVC016,0.48,VWS V14.01,2013-04-30 00:41:00,
2013-04-29 20:46:00,54.5,53.4,30.10,SE,137,6.0,10.0,96,0.00,,OVC016,0.48,VWS V14.01,2013-04-30 00:46:00,
2013-04-29 20:51:00,54.5,53.4,30.10,SE,129,6.0,6.0,96,0.00,,OVC016,0.48,VWS V14.01,2013-04-30 00:51:00,
2013-04-29 20:56:00,54.5,53.4,30.11,SSE,158,6.0,11.0,96,0.00,,OVC016,0.48,VWS V14.01,2013-04-30 00:56:00,
2013-04-29 21:01:00,54.5,53.4,30.11,SE,127,13.0,13.0,96,0.00,,OVC011,0.48,VWS V14.01,2013-04-30 01:01:00,
2013-04-29 21:06:00,54.5,53.4,30.11,SE,134,5.0,7.0,96,0.00,,OVC011,0.48,VWS V14.01,2013-04-30 01:06:00,
2013-04-29 21:11:00,54.4,53.3,30.11,ESE,123,6.0,10.0,96,0.00,,OVC011,0.48,VWS V14.01,2013-04-30 01:11:00,
2013-04-29 21:16:00,54.4,53.3,30.11,SE,135,10.0,17.0,96,0.00,,OVC011,0.48,VWS V14.01,2013-04-30 01:16:00,
2013-04-29 21:22:00,54.5,53.4,30.11,SE,131,7.0,12.0,96,0.00,,OVC011,0.48,VWS V14.01,2013-04-30 01:22:00,
2013-04-29 21:27:00,54.5,53.4,30.12,SE,139,7.0,13.0,96,0.00,,OVC011,0.48,VWS V14.01,2013-04-30 01:27:00,
2013-04-29 21:32:00,54.5,53.4,30.12,ESE,117,11.0,13.0,96,0.00,,OVC011,0.48,VWS V14.01,2013-04-30 01:32:00,
2013-04-29 21:37:00,54.5,53.4,30.12,SE,127,9.0,12.0,96,0.00,,OVC011,0.48,VWS V14.01,2013-04-30 01:37:00,
2013-04-29 21:42:00,54.5,53.4,30.12,ESE,120,7.0,12.0,96,0.00,,OVC011,0.48,VWS V14.01,2013-04-30 01:42:00,
2013-04-29 21:47:00,54.4,53.3,30.12,ESE,113,5.0,11.0,96,0.00,,OVC011,0.48,VWS V14.01,2013-04-30 01:47:00,
2013-04-29 21:52:00,54.3,53.2,30.13,ESE,117,7.0,9.0,96,0.00,,OVC011,0.48,VWS V14.01,2013-04-30 01:52:00,
2013-04-29 21:57:00,54.3,53.5,30.13,SE,131,7.0,9.0,97,0.00,,OVC011,0.48,VWS V14.01,2013-04-30 01:57:00,
2013-04-29 22:02:00,54.3,53.5,30.13,SE,141,6.0,8.0,97,0.00,,OVC013,0.48,VWS V14.01,2013-04-30 02:02:00,
2013-04-29 22:08:00,54.2,53.4,30.13,ESE,117,6.0,8.0,97,0.00,,OVC013,0.48,VWS V14.01,2013-04-30 02:08:00,
2013-04-29 22:13:00,54.2,53.4,30.13,East,96,6.0,9.0,97,0.00,,OVC013,0.48,VWS V14.01,2013-04-30 02:13:00,
2013-04-29 22:18:00,54.1,53.3,30.13,ESE,122,9.0,11.0,97,0.00,,OVC013,0.48,VWS V14.01,2013-04-30 02:18:00,
2013-04-29 22:23:00,54.1,53.3,30.13,ESE,120,6.0,11.0,97,0.00,,OVC013,0.48,VWS V14.01,2013-04-30 02:23:00,
2013-04-29 22:28:00,54.0,53.2,30.13,SE,127,6.0,12.0,97,0.00,,OVC013,0.48,VWS V14.01,2013-04-30 02:28:00,
2013-04-29 22:34:00,54.0,53.2,30.13,ESE,113,7.0,9.0,97,0.00,,OVC013,0.48,VWS V14.01,2013-04-30 02:34:00,
2013-04-29 22:39:00,54.0,53.2,30.13,SE,124,5.0,9.0,97,0.00,,OVC013,0.48,VWS V14.01,2013-04-30 02:39:00,
2013-04-29 22:44:00,54.0,53.2,30.13,SE,139,8.0,11.0,97,0.00,,OVC013,0.48,VWS V14.01,2013-04-30 02:44:00,
2013-04-29 22:49:00,54.0,53.2,30.13,ESE,120,4.0,9.0,97,0.00,,OVC013,0.48,VWS V14.01,2013-04-30 02:49:00,
2013-04-29 22:54:00,54.0,53.2,30.13,ESE,113,6.0,9.0,97,0.00,,OVC013,0.48,VWS V14.01,2013-04-30 02:54:00,
2013-04-29 22:59:00,54.0,53.2,30.13,SE,132,8.0,9.0,97,0.00,,OVC013,0.48,VWS V14.01,2013-04-30 02:59:00,
2013-04-29 23:04:00,53.9,53.1,30.12,East,97,9.0,14.0,97,0.00,,,0.48,VWS V14.01,2013-04-30 03:04:00,
2013-04-29 23:09:00,54.0,53.2,30.12,ESE,108,8.0,13.0,97,0.00,,,0.48,VWS V14.01,2013-04-30 03:09:00,
2013-04-29 23:15:00,54.0,53.2,30.12,SE,139,5.0,15.0,97,0.00,,,0.48,VWS V14.01,2013-04-30 03:15:00,
2013-04-29 23:20:00,54.0,53.2,30.12,SE,127,3.0,10.0,97,0.00,,,0.48,VWS V14.01,2013-04-30 03:20:00,
2013-04-29 23:25:00,54.0,53.2,30.12,East,101,12.0,12.0,97,0.00,,,0.48,VWS V14.01,2013-04-30 03:25:00,
2013-04-29 23:30:00,54.0,53.2,30.12,SE,131,6.0,14.0,97,0.00,,,0.48,VWS V14.01,2013-04-30 03:30:00,
2013-04-29 23:35:00,53.9,53.1,30.12,ESE,112,9.0,12.0,97,0.00,,,0.48,VWS V14.01,2013-04-30 03:35:00,
2013-04-29 23:40:00,53.9,53.1,30.12,SE,125,6.0,13.0,97,0.00,,,0.48,VWS V14.01,2013-04-30 03:40:00,
2013-04-29 23:45:00,53.9,53.1,30.12,ESE,116,9.0,13.0,97,0.00,,,0.48,VWS V14.01,2013-04-30 03:45:00,
2013-04-29 23:50:00,53.9,53.1,30.12,SE,136,8.0,13.0,97,0.00,,,0.48,VWS V14.01,2013-04-30 03:50:00,
2013-04-29 23:55:00,53.8,53.0,30.12,SE,136,8.0,13.0,97,0.00,,,0.48,VWS V14.01,2013-04-30 03:55:00,